Flag for Netherlands Weather past 2 weeks in Nijmegen, Netherlands

Now
86 °F

Passing clouds.


Feels Like: 89 °F
Forecast: 62 / 81 °F
Wind: 8 mph from South

Location: Volkel

Current Time: Jul 4, 2015 at 10:29:30 AM

Latest Report: Jul 4, 2015 at 9:55 AM


Visibility: N/A

Pressure: 30.01 "Hg

Humidity: 55%

Dew point: 68 °F

Location of NijmegenLocation

Historic Weather in Nijmegen — Graph

°F

Nijmegen temperature yesterday

Maximum temperature yesterday: 90 °F (at 5:25 PM)
Minimum temperature yesterday: 66 °F (at 1:25 AM)
Average temperature yesterday: 77 °F

Past Weeks' High & Low Weather Summary

 TemperatureHumidityPressure
High99 °F (Jul 2, 2:55 PM)100% (Jun 23, 12:55 AM)30.24 "Hg (Jun 23, 12:55 AM)
Low46 °F (Jun 23, 12:55 AM)26% (Jul 1, 3:25 PM)29.68 "Hg (Jun 22, 7:25 PM)
Average65 °F70%30.06 "Hg
* Reported Jun 19 8:25 AM — Jul 4 8:55 AM, Nijmegen, Weather by CustomWeather, © 2015

Note: Actual official high and low records may vary slightly from our data, if they occured in-between our weather recording intervals... More about our weather records

Advertising

Nijmegen weather history for previous 24 hours

 ConditionsComfort  
Time TempWeatherWind HumidityBarometerVisibility
8:55 AM
Sat, Jul 4
82 °FWarm.8 mph62%30.01 "HgN/A
8:25 AM79 °FWarm.6 mph74%30.01 "HgN/A
7:55 AM77 °FPartly sunny.7 mph74%30.01 "HgN/A
7:25 AM75 °FHigh level clouds.6 mph78%30.01 "HgN/A
6:55 AM73 °FFog.8 mph83%30.04 "Hg6 mi
6:25 AM72 °FFog.8 mph88%30.04 "Hg6 mi
5:55 AM72 °FFog.8 mph88%30.04 "Hg5 mi
5:25 AM72 °FFog.8 mph88%30.04 "Hg5 mi
4:55 AM72 °FFog.8 mph88%30.07 "Hg5 mi
4:25 AM72 °FFog.7 mph88%30.07 "Hg6 mi
3:55 AM72 °FMild.8 mph88%30.07 "HgN/A
3:25 AM73 °FPassing clouds.9 mph83%30.09 "HgN/A
2:55 AM73 °FPassing clouds.8 mph83%30.09 "HgN/A
2:25 AM73 °FMild.8 mph83%30.09 "HgN/A
1:55 AM73 °FMild.8 mph78%30.12 "HgN/A
1:25 AM75 °FMild.10 mph74%30.12 "HgN/A
12:55 AM75 °FMild.9 mph74%30.12 "HgN/A
12:25 AM75 °FMild.8 mph74%30.12 "HgN/A
11:55 PM
Fri, Jul 3
75 °FMild.8 mph74%30.15 "HgN/A
11:25 PM77 °FPassing clouds.8 mph69%30.15 "HgN/A
10:55 PM77 °FWarm.8 mph69%30.15 "HgN/A
10:25 PM79 °FWarm.7 mph65%30.15 "HgN/A
9:55 PM79 °FWarm.7 mph65%30.15 "HgN/A
9:25 PM81 °FPassing clouds.6 mph66%30.15 "HgN/A
8:55 PM82 °FWarm.7 mph58%30.15 "HgN/A
8:25 PM82 °FWarm.7 mph58%30.15 "HgN/A
7:55 PM84 °FPassing clouds.7 mph55%30.15 "HgN/A
7:25 PM86 °FPassing clouds.8 mph52%30.18 "HgN/A
6:55 PM88 °FScattered clouds.8 mph49%30.18 "HgN/A
6:25 PM88 °FWarm.9 mph49%30.18 "HgN/A
5:55 PM88 °FWarm.7 mph49%30.18 "HgN/A
5:25 PM90 °FPartly sunny.6 mph46%30.18 "HgN/A
4:55 PM86 °FMostly cloudy.6 mph49%30.18 "HgN/A
4:25 PM88 °FScattered clouds.6 mph46%30.18 "HgN/A
4:02 PM86 °FPartly sunny.8 mph49%30.21 "HgN/A
3:55 PM88 °FPartly sunny.7 mph49%30.21 "HgN/A
3:25 PM88 °FScattered clouds.7 mph46%30.21 "HgN/A
2:55 PM88 °FPassing clouds.5 mph46%30.21 "HgN/A
2:25 PM86 °FPartly sunny.6 mph52%30.21 "HgN/A
1:59 PM84 °FScattered clouds.3 mph51%30.21 "HgN/A
1:55 PM86 °FPassing clouds.5 mph49%30.21 "HgN/A
1:25 PM86 °FPassing clouds.3 mph49%30.24 "HgN/A
12:55 PM84 °FWarm.5 mph55%30.24 "HgN/A
12:25 PM84 °FPassing clouds.3 mph55%30.24 "HgN/A
11:55 AM82 °FWarm.5 mph58%30.24 "HgN/A
11:25 AM81 °FPassing clouds.3 mph62%30.24 "HgN/A
10:55 AM79 °FWarm.3 mph61%30.24 "HgN/A
10:25 AM77 °FWarm.5 mph69%30.24 "HgN/A
Weather by CustomWeather, © 2015

See weather overviewHow to use our weather pages